[[{"header":{"parameterUnit":"m.s-1","parameterCategory":1,"la1":30.2991,"la2":30.254,"lo1":-89.0895,"lo2":-89.0444,"dy":0.0017,"dx":0.0017,"nx":28,"ny":28,"refTime":"2025-11-23T09:00:00:Z","depth":0,"parameterNumber":2,"parameterNumberName":"U-component_of_WINDS"},"data":[0,0,0,0,0,0,0,0,0,0,0,0,0,0,0,0,0,0,0,0,0,0,0,0,0,0,0,0,0,0,0,0,0,0,0,0,0,0,0,0,0,0,0,0,0,0,0,0,0,0,0,0,0,0,0,0,0,0,-2.5732,-2.5733,0,-2.5795,-2.5796,-2.5796,-2.574,-2.5738,-2.5736,-2.5733,-2.5799,-2.5803,-2.5807,0,0,0,0,0,0,0,0,0,0,0,0,0,-2.5565,-2.5568,-2.5732,-2.5733,-2.5734,-2.5795,-2.5796,-2.5797,-2.5741,-2.5738,-2.5735,-2.5732,-2.5798,-2.5803,-2.5807,0,0,0,0,0,0,0,0,0,0,0,0,0,-2.5634,-2.5569,-2.5732,-2.5713,-2.5712,-2.5795,-2.5796,-2.5797,-2.5741,-2.5738,-2.5734,-2.5731,-2.5797,-2.5802,-2.5808,-2.5913,0,0,-2.5826,-2.5828,0,0,0,0,0,0,0,0,-2.563,-2.564,-2.5715,-2.5715,-2.5714,-2.5756,-2.5761,-2.5836,-2.5742,-2.573,-2.5733,-2.5729,-2.5788,-2.5794,-2.5814,-2.5916,-2.5919,-2.5826,-2.583,-2.5833,-2.5834,0,0,0,0,0,0,0,-2.5625,-2.5637,-2.5757,-2.5716,-2.5715,-2.5702,-2.5708,-2.5775,-2.5778,-2.5731,-2.5727,-2.5735,-2.5787,-2.5808,-2.5815,-2.592,-2.5826,-2.5831,-2.5835,-2.5837,-2.6113,-2.6116,0,0,0,0,0,0,-2.5622,-2.5633,-2.5755,-2.5759,-2.5662,-2.5708,-2.5714,-2.5746,-2.5777,-2.5778,-2.5738,-2.5732,-2.58,-2.5808,-2.5817,-2.5943,-2.5832,-2.5838,-2.5841,-2.6109,-2.6113,-2.6118,0,0,0,0,0,0,-2.5619,-2.5634,-2.5753,-2.5695,-2.5709,-2.5714,-2.575,-2.5749,-2.577,-2.5782,-2.5782,-2.5759,-2.5797,-2.5809,-2.589,-2.5944,-2.5841,-2.5846,-2.6104,-2.611,-2.6116,-2.6195,0,0,0,0,0,0,-2.5614,-2.5633,-2.5673,-2.5696,-2.5712,-2.5824,-2.5754,-2.5753,-2.578,-2.5773,-2.5802,-2.5804,-2.5796,-2.5881,-2.5896,-2.5951,-2.585,-2.61,-2.6107,-2.6114,-2.6188,-2.6203,-2.6216,0,0,0,0,0,-2.5609,-2.5693,-2.5675,-2.569,-2.5762,-2.5827,-2.5837,-2.5825,-2.5785,-2.5825,-2.5833,-2.5803,-2.5936,-2.589,-2.5906,-2.5963,-2.6096,-2.6105,-2.6113,-2.6182,-2.62,-2.6216,0,0,0,0,0,0,-2.5676,-2.5696,-2.5676,-2.577,-2.5798,-2.5818,-2.5868,-2.5845,-2.5885,-2.5877,-2.5861,-2.5868,-2.5954,-2.5966,-2.5915,-2.6067,-2.6009,-2.6021,-2.6056,-2.6074,-2.6087,-2.6084,-2.5855,0,0,0,0,0,-2.5702,-2.5753,-2.5767,-2.5849,-2.5864,-2.5864,-2.5892,-2.588,-2.5908,-2.592,-2.5933,-2.5962,-2.601,-2.6042,-2.6087,-2.6188,-2.6195,-2.6236,-2.625,-2.6261,-2.6273,-2.6328,-2.6347,-2.6146,-2.6146,-2.6145,0,0,-2.5756,-2.5773,-2.5806,-2.5863,-2.5883,-2.5936,-2.5874,-2.5933,-2.5973,-2.5929,-2.6006,-2.6017,-2.6048,-2.614,-2.6181,-2.6153,-2.6329,-2.6272,-2.6281,-2.6286,-2.6339,-2.6358,-2.6375,-2.6151,-2.615,-2.6149,0,0,-2.5882,-2.59,-2.597,-2.5991,-2.6021,-2.6021,-2.6038,-2.6061,-2.6067,-2.6144,-2.6112,-2.6159,-2.6242,-2.6266,-2.6289,-2.6423,-2.6397,-2.6438,-2.6512,-2.6567,-2.6582,-2.6596,-2.6646,-2.6663,-2.6449,-2.6449,-2.6449,0,-2.5946,-2.6025,-2.601,-2.6071,-2.6098,-2.6059,-2.6131,-2.6152,-2.6196,-2.6215,-2.6182,-2.6286,-2.6304,-2.6401,-2.6434,-2.6453,-2.6473,-2.6436,-2.6581,-2.6595,-2.6608,-2.6655,-2.6673,-2.6454,-2.6453,-2.6453,-2.6452,0,-2.6102,-2.6158,-2.6211,-2.6254,-2.6286,-2.6352,-2.6347,-2.6382,-2.6367,-2.637,-2.645,-2.647,-2.6518,-2.654,-2.6527,-2.6636,-2.6617,-2.6583,-2.6526,-2.6632,-2.6676,-2.6694,-2.6461,-2.6459,-2.6458,-2.6456,0,0,-2.6275,-2.6307,-2.6328,-2.6347,-2.6377,-2.642,-2.6484,-2.6531,-2.6561,-2.6592,-2.6647,-2.6718,-2.6686,-2.6712,-2.6701,-2.6748,-2.6855,-2.6708,-2.6709,-2.6736,-2.6978,-2.7004,-2.7025,-2.6837,-2.684,-2.6843,-2.6975,0,-2.6403,-2.6516,-2.6503,-2.661,-2.6662,-2.6625,-2.6681,-2.6706,-2.6711,-2.6755,-2.6759,-2.6811,-2.6764,-2.678,-2.6825,-2.6833,-2.6904,-2.6822,-2.6889,-2.6892,-2.6884,-2.7048,-2.7077,-2.7201,-2.6992,-2.6995,-2.6997,0,-2.6569,-2.6606,-2.6718,-2.674,-2.6761,-2.6812,-2.6854,-2.6897,-2.6924,-2.6924,-2.6953,-2.6933,-2.6998,-2.6938,-2.7028,-2.6974,-2.7,-2.7008,-2.7012,-2.7019,-2.6952,-2.7061,-2.724,-2.7259,-2.7024,-2.7022,-2.702,0,-2.6685,-2.6763,-2.684,-2.6857,-2.6885,-2.6922,-2.6935,-2.6959,-2.6988,-2.7024,-2.7043,-2.7087,-2.7112,-2.7146,-2.7139,-2.7096,-2.7232,-2.7171,-2.7235,-2.7235,-2.7267,-2.7266,-2.7454,-2.7281,-2.7281,-2.728,-2.728,0,-2.6831,-2.6902,-2.6893,-2.6941,-2.7018,-2.7003,-2.7081,-2.7089,-2.7111,-2.716,-2.7131,-2.7178,-2.7164,-2.7211,-2.7206,-2.7282,-2.7293,-2.7296,-2.7294,-2.7299,-2.7299,-2.7318,-2.731,-2.7285,-2.7284,-2.7283,-2.7282,0,-2.6976,-2.6972,-2.7054,-2.7073,-2.7079,-2.7136,-2.7153,-2.7198,-2.7199,-2.7262,-2.7276,-2.7278,-2.7331,-2.7327,-2.7387,-2.7383,-2.7479,-2.7465,-2.7469,-2.7467,-2.7532,-2.7527,-2.7741,-2.7769,-2.7576,-2.7578,-2.7579,0,-2.707,-2.7123,-2.7148,-2.7178,-2.7194,-2.7244,-2.7273,-2.7259,-2.7291,-2.7326,-2.7368,-2.7418,-2.7458,-2.7544,-2.7552,-2.7598,-2.7587,-2.7658,-2.7594,-2.7598,-2.759,-2.7587,-2.7593,-2.7672,-2.7674,-2.7676,-2.7677,0,-2.7239,-2.7234,-2.7277,-2.732,-2.7355,-2.7388,-2.7418,-2.7445,-2.7434,-2.7471,-2.7525,-2.7556,-2.7616,-2.7667,-2.7711,-2.7725,-2.7701,-2.7697,-2.7715,-2.7722,-2.7723,-2.7725,-2.7506,-2.7693,-2.7691,-2.769,-2.7689,-2.7689,-2.7362,-2.7408,-2.7432,-2.7481,-2.7502,-2.753,-2.7574,-2.758,-2.7624,-2.7673,-2.7662,-2.7723,-2.7749,-2.7804,-2.7823,-2.787,-2.7845,-2.787,-2.7876,-2.7883,-2.7892,-2.7714,-2.7878,-2.7877,-2.7877,-2.7877,-2.7876,0,-2.753,-2.7544,-2.7589,-2.7631,-2.767,-2.7641,-2.7673,-2.7707,-2.7761,-2.7787,-2.7826,-2.7888,-2.7937,-2.7948,-2.7995,-2.8031,-2.8021,-2.8044,-2.8042,-2.8046,-2.7911,-2.7892,-2.8051,-2.8051,-2.8051,-2.8051,-2.8051,-2.8051,-2.7623,-2.7699,-2.7697,-2.7784,-2.7796,-2.7855,-2.7876,-2.7902,-2.7923,-2.7993,-2.8033,-2.804,-2.806,-2.8108,-2.8152,-2.8153,-2.8173,-2.8201,-2.8199,-2.8073,-2.8055,-2.8039,-2.8021,-2.8205,-2.8205,-2.833,-2.8331,-2.8332]},{"header":{"parameterUnit":"m.s-1","parameterCategory":1,"la1":30.2991,"la2":30.254,"lo1":-89.0895,"lo2":-89.0444,"dy":0.0017,"dx":0.0017,"nx":28,"ny":28,"refTime":"2025-11-23T09:00:00:Z","depth":0,"parameterNumber":3,"parameterNumberName":"V-component_of_WINDS"},"data":[0,0,0,0,0,0,0,0,0,0,0,0,0,0,0,0,0,0,0,0,0,0,0,0,0,0,0,0,0,0,0,0,0,0,0,0,0,0,0,0,0,0,0,0,0,0,0,0,0,0,0,0,0,0,0,0,0,0,-1.7428,-1.7428,0,-1.7439,-1.7439,-1.7439,-1.7418,-1.7417,-1.7416,-1.7416,-1.7427,-1.7427,-1.7428,0,0,0,0,0,0,0,0,0,0,0,0,0,-1.7386,-1.7386,-1.7428,-1.7428,-1.7428,-1.7439,-1.7439,-1.744,-1.7418,-1.7417,-1.7416,-1.7415,-1.7426,-1.7427,-1.7428,0,0,0,0,0,0,0,0,0,0,0,0,0,-1.7401,-1.7387,-1.7428,-1.7419,-1.7418,-1.7439,-1.7439,-1.744,-1.7418,-1.7417,-1.7416,-1.7415,-1.7426,-1.7427,-1.7429,-1.7459,0,0,-1.7433,-1.7434,0,0,0,0,0,0,0,0,-1.74,-1.7403,-1.742,-1.7419,-1.7419,-1.7426,-1.7428,-1.7446,-1.7418,-1.7418,-1.7416,-1.7415,-1.7427,-1.7428,-1.7433,-1.7459,-1.746,-1.7433,-1.7434,-1.7435,-1.7435,0,0,0,0,0,0,0,-1.7399,-1.7402,-1.7432,-1.742,-1.7419,-1.7413,-1.7415,-1.7432,-1.7428,-1.7418,-1.7417,-1.7418,-1.7427,-1.7432,-1.7433,-1.746,-1.7433,-1.7434,-1.7435,-1.7436,-1.7511,-1.7512,0,0,0,0,0,0,-1.7399,-1.7401,-1.7432,-1.7433,-1.7407,-1.7415,-1.7416,-1.7425,-1.7428,-1.7428,-1.7419,-1.7417,-1.743,-1.7431,-1.7433,-1.7468,-1.7435,-1.7436,-1.7437,-1.7509,-1.7511,-1.7512,0,0,0,0,0,0,-1.7399,-1.7402,-1.7431,-1.7417,-1.742,-1.7417,-1.7427,-1.7426,-1.743,-1.7429,-1.7428,-1.7425,-1.7429,-1.7431,-1.7452,-1.7468,-1.7437,-1.7438,-1.7508,-1.751,-1.7511,-1.7539,0,0,0,0,0,0,-1.7398,-1.7402,-1.7414,-1.7417,-1.7421,-1.7451,-1.7428,-1.7427,-1.7433,-1.7431,-1.7434,-1.7434,-1.7428,-1.745,-1.7454,-1.747,-1.7439,-1.7507,-1.7509,-1.7511,-1.7536,-1.7541,-1.7545,0,0,0,0,0,-1.7396,-1.7421,-1.7415,-1.7419,-1.7436,-1.7452,-1.7454,-1.7447,-1.7435,-1.7446,-1.7445,-1.7434,-1.7466,-1.7453,-1.7456,-1.7473,-1.7506,-1.7508,-1.7511,-1.7534,-1.754,-1.7545,0,0,0,0,0,0,-1.7421,-1.7422,-1.7415,-1.7442,-1.7447,-1.7448,-1.7463,-1.7454,-1.7463,-1.746,-1.7451,-1.7452,-1.7475,-1.7476,-1.7461,-1.7502,-1.7484,-1.7487,-1.75,-1.7506,-1.751,-1.7509,-1.744,0,0,0,0,0,-1.7429,-1.7443,-1.7443,-1.7467,-1.747,-1.7466,-1.7473,-1.7467,-1.7472,-1.7474,-1.7475,-1.748,-1.7491,-1.7498,-1.7509,-1.7536,-1.7536,-1.7549,-1.7554,-1.7557,-1.756,-1.7574,-1.758,-1.752,-1.752,-1.752,0,0,-1.7447,-1.7449,-1.7458,-1.7472,-1.7475,-1.7489,-1.7468,-1.7484,-1.7493,-1.7476,-1.7496,-1.7497,-1.7502,-1.7526,-1.7537,-1.7528,-1.7577,-1.7561,-1.7563,-1.7564,-1.7577,-1.7583,-1.7588,-1.7522,-1.7522,-1.7521,0,0,-1.7486,-1.749,-1.751,-1.7513,-1.7519,-1.7516,-1.7521,-1.7523,-1.7523,-1.7543,-1.753,-1.7541,-1.7561,-1.7565,-1.7569,-1.7609,-1.7598,-1.7612,-1.7635,-1.7649,-1.7654,-1.7658,-1.7671,-1.7676,-1.7615,-1.7615,-1.7615,0,-1.7508,-1.7528,-1.7521,-1.7537,-1.7543,-1.7528,-1.7548,-1.7552,-1.756,-1.7564,-1.7554,-1.7577,-1.758,-1.7604,-1.7614,-1.7618,-1.7623,-1.7612,-1.7654,-1.7658,-1.7661,-1.7674,-1.7679,-1.7617,-1.7617,-1.7617,-1.7617,0,-1.7554,-1.7568,-1.7584,-1.7592,-1.7599,-1.7617,-1.7612,-1.762,-1.7614,-1.7612,-1.7632,-1.7634,-1.7644,-1.7649,-1.7643,-1.7673,-1.7667,-1.7655,-1.7637,-1.7669,-1.7681,-1.7685,-1.7619,-1.7619,-1.7618,-1.7618,0,0,-1.761,-1.7613,-1.7619,-1.7622,-1.7626,-1.7637,-1.7654,-1.7664,-1.7671,-1.7677,-1.769,-1.7706,-1.7695,-1.7701,-1.7695,-1.7707,-1.7737,-1.7693,-1.7693,-1.7701,-1.7769,-1.7777,-1.7783,-1.773,-1.7731,-1.7732,-1.7768,0,-1.7648,-1.7677,-1.7671,-1.7699,-1.7712,-1.7697,-1.7712,-1.7716,-1.7714,-1.7724,-1.7722,-1.7733,-1.7719,-1.7721,-1.7733,-1.7731,-1.775,-1.7728,-1.7742,-1.7742,-1.7741,-1.7789,-1.7799,-1.7833,-1.7773,-1.7774,-1.7774,0,-1.7698,-1.7705,-1.7735,-1.7736,-1.7741,-1.7754,-1.7762,-1.7772,-1.7776,-1.7774,-1.7779,-1.7771,-1.7786,-1.7768,-1.7789,-1.7774,-1.7779,-1.7779,-1.778,-1.7781,-1.776,-1.7791,-1.7844,-1.7849,-1.7782,-1.7781,-1.7781,0,-1.7734,-1.7752,-1.7772,-1.7775,-1.7777,-1.7787,-1.7788,-1.7791,-1.7797,-1.7804,-1.7807,-1.7816,-1.7821,-1.7827,-1.7821,-1.7808,-1.7843,-1.7824,-1.7841,-1.7841,-1.7849,-1.7848,-1.7903,-1.7853,-1.7852,-1.7852,-1.7852,0,-1.7778,-1.7797,-1.7788,-1.7801,-1.7821,-1.7812,-1.7832,-1.7832,-1.7834,-1.7845,-1.7834,-1.7844,-1.7835,-1.7845,-1.784,-1.7858,-1.7861,-1.7859,-1.7857,-1.786,-1.786,-1.7863,-1.786,-1.7854,-1.7853,-1.7853,-1.7853,0,-1.7823,-1.7818,-1.7839,-1.7839,-1.7839,-1.7854,-1.7854,-1.7865,-1.7862,-1.7876,-1.7879,-1.7875,-1.7886,-1.788,-1.7891,-1.7888,-1.7911,-1.7906,-1.791,-1.7908,-1.7926,-1.7924,-1.7984,-1.7991,-1.7936,-1.7937,-1.7937,0,-1.7851,-1.7865,-1.7866,-1.7873,-1.7875,-1.7886,-1.7892,-1.7884,-1.7891,-1.7895,-1.7906,-1.7915,-1.7923,-1.7941,-1.7938,-1.7947,-1.7942,-1.7962,-1.7943,-1.7945,-1.7942,-1.7941,-1.7942,-1.7966,-1.7967,-1.7967,-1.7968,0,-1.7901,-1.7898,-1.7907,-1.7915,-1.7922,-1.7928,-1.7933,-1.7939,-1.7931,-1.7939,-1.795,-1.7956,-1.7967,-1.7977,-1.7984,-1.7985,-1.7975,-1.7974,-1.7978,-1.7981,-1.7982,-1.7981,-1.792,-1.7972,-1.7972,-1.7971,-1.7971,-1.7971,-1.7938,-1.7949,-1.7952,-1.7962,-1.7965,-1.7969,-1.7979,-1.7978,-1.7987,-1.7995,-1.799,-1.8002,-1.8005,-1.8013,-1.8015,-1.8025,-1.8017,-1.8023,-1.8025,-1.8026,-1.8028,-1.798,-1.8026,-1.8026,-1.8026,-1.8026,-1.8026,0,-1.7987,-1.7988,-1.7997,-1.8004,-1.8012,-1.8002,-1.8007,-1.8014,-1.8025,-1.8028,-1.8036,-1.8048,-1.8057,-1.8055,-1.8063,-1.8071,-1.8066,-1.8073,-1.8072,-1.8073,-1.8035,-1.8031,-1.8077,-1.8077,-1.8077,-1.8077,-1.8077,-1.8077,-1.8013,-1.8032,-1.8029,-1.8048,-1.8048,-1.806,-1.8064,-1.8068,-1.807,-1.8084,-1.8092,-1.809,-1.8091,-1.8099,-1.8107,-1.8106,-1.8109,-1.8118,-1.8115,-1.808,-1.8075,-1.8071,-1.8066,-1.8119,-1.8119,-1.8152,-1.8152,-1.8152]}]]